Location: Key Biscayne
(25.6930°N, 80.1630°W)
Time: 15:55:21
(UTC-05:00)

N. Korean satellite - Pass Details

Date: 19 November 2017
Orbit: 460 x 514 km, 97.2° (Epoch: 20 November)

Event Time Altitude Azimuth Distance (km) Brightness Sun altitude
Rises 18:18:21 0° 160° (SSE) 2,471 10.1 -11.0°
Reaches altitude 10° 18:20:24 10° 155° (SSE) 1,604 9.1 -11.4°
Maximum altitude 18:23:45 55° 77° (ENE) 566 6.5 -12.2°
Drops below altitude 10° 18:27:11 10° 359° (N) 1,631 9.1 -12.9°
Sets 18:29:16 0° 355° (N) 2,519 10.1 -13.4°
